星链-32577 (STARLINK-32577)

导读

STARLINK-32577是美国SpaceX公司星链(Starlink)星座中的一颗互联网卫星,于2024年11月21日由猎鹰9号火箭从卡纳维拉尔角太空军基地发射,属于星链6-66任务批次。 作为低轨宽带卫星,它运行在近地轨道,旨在为全球,尤其是偏远、网络覆盖不足的地区提供低延迟、高速的卫星互联网服务,进一步扩充了星链星座的规模,助力SpaceX实现全球全域互联的目标。

Basic Information
目录编号:
62044
目录名称:
STARLINK-32577
国际标识:
2024-216N
轨道中心:
EARTH
卫星名称:
星链-32577
卫星全名:
星链-32577 (STARLINK-32577)
卫星状态:
在轨 (已飞行659 天)
发射日期:
2024-11-21 UTC
国别 :
美国 (US)
星等 :
--
This satellite is enrolled in the Space Conjunction Data Service (SCDS) and the current flight risk assessment level is: No High Risk
Orbit Information
数据来源 国际轨道数据 AOE轨道数据
星历时间 2026-09-10T17:45:02+0800
22小时前
查看轨道信息
2026-09-06T07:00:00+0800
5天前
查看轨道信息
半长轴 6861.18km 6861.211km
偏心率 0.0001716 0.0001477
轨道倾角 43.001° 43.001°
近地点辐角 273.948° 274.354°
升交点赤经 300.239° 325.359°
平近点角 86.118° 76.585°
近地点 481.865km 482.06km
远地点 484.221km 484.088km
周期 94.267分钟 94.267分钟
每日圈数 15.275823 15.275718
Detailed Information
固有亮度:
5
最大亮度:
2.5
卫星平台:
Starlink V1.0
覆盖范围:
全球
运营商:
太空探索技术公司
运营商所在国:
美国
制造商(研发单位):
太空探索技术公司
制造商所在国:
美国
使用方式:
暂无
Satellite Introduction
Starlink 计划是 SpaceX 推出的全球卫星互联网项目,通过发射低轨道卫星,为全球尤其是偏远地区提供高速、低延迟的互联网服务。自 2019 年起,Starlink 已部署数千颗卫星,旨在缩小全球数字鸿沟,推动互联网普及。该项目还为军事、航空等行业提供通信支持,带来广泛经济效益。
2D Orbit Map
3D Orbit Map
Orbit Altitude Analysis Chart
Orbit Inclination Analysis Chart
Orbit Comprehensive Analysis Chart
View Comprehensive Chart
Conjunction Data List
Event ID Objects TCA Miss Dist (km) Collision Risk Probability Collision Risk Index (CRI) Action
CDM_260913-072805-602706-204421
2026-09-13T
07:28:08+0000
0.798 km
远距离
4.327229E-5 中风险 0.68
CDM_260913-055305-602706-204421
2026-09-13T
05:53:59+0000
1.496 km
极远距离
5.119907E-6 低风险 0.49
CDM_260911-183605-864606-204422
2026-09-11T
18:36:43+0000
2.158 km
极远距离
1.533371E-6 低风险 0.39
CDM_260913-124206-204406-653321
2026-09-13T
12:42:13+0000
1.580 km
极远距离
1.306309E-6 低风险 0.37
CDM_260911-172806-204406-471521
2026-09-11T
17:28:15+0000
2.662 km
极远距离
1.201205E-6 低风险 0.37
CDM_260910-091105-511206-204421
2026-09-10T
09:11:35+0000
2.686 km
极远距离
1.143304E-6 低风险 0.36
CDM_260913-090205-602706-204421
2026-09-13T
09:02:17+0000
2.871 km
极远距离
1.119259E-6 低风险 0.36
Miss Distance Evolution Trend with All Objects
Collision Probability Evolution Trend with All Objects